Location: Gro�wechsungen
(51.4926°N, 10.6901°E)
Time: 13:38:51
(UTC+00:00)

Cosmos 2082 Rocket - Pass Details

Date: 22 January 2021
Orbit: 832 x 854 km, 71.0° (Epoch: 04 March)

Event Time Altitude Azimuth Distance (km) Brightness Sun altitude
Rises 19:02:56 0° 329° (NNW) 3,438 5.8 -29.7°
Reaches altitude 10° 19:05:24 10° 331° (NNW) 2,498 5.0 -30.1°
Enters shadow 19:09:39 51° 338° (NNW) 1,064 2.7 -30.7°
